Time,TemperatureF,DewpointF,PressureIn,WindDirection,WindDirectionDegrees,WindSpeedMPH,WindSpeedGustMPH,Humidity,HourlyPrecipIn,Conditions,Clouds,dailyrainin,SoftwareType,DateUTC
2013-08-23 00:00:00,63.5,54.3,30.13,NE,47,1.0,1.0,72,0.00,,,0.00,Wunderground v.1.15,2013-08-23 05:00:00,
2013-08-23 00:05:00,63.1,54.3,30.13,NE,47,1.0,8.0,73,0.00,,,0.00,Wunderground v.1.15,2013-08-23 05:05:00,
2013-08-23 00:10:00,62.7,54.3,30.13,NE,47,1.0,8.0,74,0.00,,,0.00,Wunderground v.1.15,2013-08-23 05:10:00,
2013-08-23 00:20:00,61.9,54.2,30.13,NE,47,1.0,1.0,76,0.00,,,0.00,Wunderground v.1.15,2013-08-23 05:20:00,
2013-08-23 00:25:00,61.4,54.1,30.13,NE,47,0.0,8.0,77,0.00,,,0.00,Wunderground v.1.15,2013-08-23 05:25:00,
2013-08-23 00:30:00,61.0,54.1,30.13,NE,47,0.0,8.0,78,0.00,,,0.00,Wunderground v.1.15,2013-08-23 05:30:00,
2013-08-23 00:35:00,60.5,54.0,30.13,NE,47,0.0,8.0,79,0.00,,,0.00,Wunderground v.1.15,2013-08-23 05:35:00,
2013-08-23 00:40:00,60.2,54.0,30.13,NE,47,0.0,8.0,80,0.00,,,0.00,Wunderground v.1.15,2013-08-23 05:40:00,
2013-08-23 00:45:00,59.8,54.0,30.13,NE,47,0.0,8.0,81,0.00,,,0.00,Wunderground v.1.15,2013-08-23 05:45:00,
2013-08-23 00:50:00,59.5,54.0,30.13,NE,47,0.0,8.0,82,0.00,,,0.00,Wunderground v.1.15,2013-08-23 05:50:00,
2013-08-23 00:55:00,59.3,53.8,30.13,NE,47,0.0,8.0,82,0.00,,,0.00,Wunderground v.1.15,2013-08-23 05:55:00,
2013-08-23 01:00:00,58.9,53.7,30.13,NE,47,0.0,8.0,83,0.00,,,0.00,Wunderground v.1.15,2013-08-23 06:00:00,
2013-08-23 01:05:00,59.0,54.5,30.13,NE,47,0.0,8.0,85,0.00,,,0.00,Wunderground v.1.15,2013-08-23 06:05:00,
2013-08-23 01:10:00,58.9,54.7,30.13,NE,47,0.0,8.0,86,0.00,,,0.00,Wunderground v.1.15,2013-08-23 06:10:00,
2013-08-23 01:15:00,58.9,54.7,30.13,NE,47,0.0,8.0,86,0.00,,,0.00,Wunderground v.1.15,2013-08-23 06:15:00,
2013-08-23 01:20:00,58.7,54.5,30.13,NE,47,0.0,8.0,86,0.00,,,0.00,Wunderground v.1.15,2013-08-23 06:20:00,
2013-08-23 01:25:00,58.5,54.3,30.13,NE,47,0.0,8.0,86,0.00,,,0.00,Wunderground v.1.15,2013-08-23 06:25:00,
2013-08-23 01:30:00,58.2,54.0,30.13,NE,47,0.0,8.0,86,0.00,,,0.00,Wunderground v.1.15,2013-08-23 06:30:00,
2013-08-23 01:35:00,58.2,54.3,30.13,NE,47,0.0,8.0,87,0.00,,,0.00,Wunderground v.1.15,2013-08-23 06:35:00,
2013-08-23 01:40:00,58.2,54.7,30.13,NE,47,0.0,8.0,88,0.00,,,0.00,Wunderground v.1.15,2013-08-23 06:40:00,
2013-08-23 01:45:00,58.3,54.8,30.13,NE,47,0.0,8.0,88,0.00,,,0.00,Wunderground v.1.15,2013-08-23 06:45:00,
2013-08-23 01:50:00,57.9,54.1,30.13,NE,47,0.0,8.0,87,0.00,,,0.00,Wunderground v.1.15,2013-08-23 06:50:00,
2013-08-23 01:55:00,57.3,53.5,30.13,NE,47,0.0,8.0,87,0.00,,,0.00,Wunderground v.1.15,2013-08-23 06:55:00,
2013-08-23 02:00:00,57.0,53.5,30.13,NE,47,0.0,8.0,88,0.00,,,0.00,Wunderground v.1.15,2013-08-23 07:00:00,
2013-08-23 02:05:00,57.0,53.8,30.13,NE,47,0.0,8.0,89,0.00,,,0.00,Wunderground v.1.15,2013-08-23 07:05:00,
2013-08-23 02:10:00,56.8,53.6,30.13,NE,47,0.0,8.0,89,0.00,,,0.00,Wunderground v.1.15,2013-08-23 07:10:00,
2013-08-23 02:15:00,56.9,53.7,30.13,NE,47,0.0,8.0,89,0.00,,,0.00,Wunderground v.1.15,2013-08-23 07:15:00,
2013-08-23 02:20:00,56.9,54.0,30.13,NE,47,0.0,8.0,90,0.00,,,0.00,Wunderground v.1.15,2013-08-23 07:20:00,
2013-08-23 02:25:00,56.6,53.4,30.13,NE,47,0.0,8.0,89,0.00,,,0.00,Wunderground v.1.15,2013-08-23 07:25:00,
2013-08-23 02:30:00,56.3,53.4,30.13,NE,47,0.0,8.0,90,0.00,,,0.00,Wunderground v.1.15,2013-08-23 07:30:00,
2013-08-23 02:40:00,56.0,53.1,30.13,NE,47,0.0,8.0,90,0.00,,,0.00,Wunderground v.1.15,2013-08-23 07:40:00,
2013-08-23 02:45:00,56.0,53.4,30.13,NE,47,0.0,8.0,91,0.00,,,0.00,Wunderground v.1.15,2013-08-23 07:45:00,
2013-08-23 02:50:00,56.4,54.1,30.14,NE,47,0.0,8.0,92,0.00,,,0.00,Wunderground v.1.15,2013-08-23 07:50:00,
2013-08-23 02:55:00,56.6,54.0,30.14,NE,47,0.0,8.0,91,0.00,,,0.00,Wunderground v.1.15,2013-08-23 07:55:00,
2013-08-23 03:00:00,56.3,53.4,30.13,NE,47,0.0,8.0,90,0.00,,,0.00,Wunderground v.1.15,2013-08-23 08:00:00,
2013-08-23 03:05:00,56.0,53.4,30.14,NE,47,0.0,8.0,91,0.00,,,0.00,Wunderground v.1.15,2013-08-23 08:05:00,
2013-08-23 03:10:00,55.7,53.1,30.14,NE,47,0.0,8.0,91,0.00,,,0.00,Wunderground v.1.15,2013-08-23 08:10:00,
2013-08-23 03:15:00,55.6,53.0,30.14,NE,47,0.0,8.0,91,0.00,,,0.00,Wunderground v.1.15,2013-08-23 08:15:00,
2013-08-23 03:20:00,55.5,52.9,30.14,NE,47,0.0,8.0,91,0.00,,,0.00,Wunderground v.1.15,2013-08-23 08:20:00,
2013-08-23 03:25:00,55.4,52.8,30.14,NE,47,0.0,8.0,91,0.00,,,0.00,Wunderground v.1.15,2013-08-23 08:25:00,
2013-08-23 03:35:00,56.0,53.7,30.14,NE,47,0.0,8.0,92,0.00,,,0.00,Wunderground v.1.15,2013-08-23 08:35:00,
2013-08-23 03:40:00,55.9,53.6,30.14,NE,47,0.0,8.0,92,0.00,,,0.00,Wunderground v.1.15,2013-08-23 08:40:00,
2013-08-23 03:45:00,55.9,53.3,30.14,NE,47,0.0,8.0,91,0.00,,,0.00,Wunderground v.1.15,2013-08-23 08:45:00,
2013-08-23 03:50:00,55.6,53.0,30.14,NE,47,0.0,8.0,91,0.00,,,0.00,Wunderground v.1.15,2013-08-23 08:50:00,
2013-08-23 03:55:00,55.3,52.7,30.14,NE,47,0.0,8.0,91,0.00,,,0.00,Wunderground v.1.15,2013-08-23 08:55:00,
2013-08-23 04:00:00,55.1,52.5,30.14,NE,47,0.0,8.0,91,0.00,,,0.00,Wunderground v.1.15,2013-08-23 09:00:00,
2013-08-23 04:10:00,54.9,52.6,30.14,NE,47,0.0,8.0,92,0.00,,,0.00,Wunderground v.1.15,2013-08-23 09:10:00,
2013-08-23 04:15:00,54.7,52.4,30.14,NE,46,0.0,8.0,92,0.00,,,0.00,Wunderground v.1.15,2013-08-23 09:15:00,
2013-08-23 04:20:00,54.8,52.5,30.14,NE,46,0.0,8.0,92,0.00,,,0.00,Wunderground v.1.15,2013-08-23 09:20:00,
2013-08-23 04:25:00,54.7,52.4,30.14,NE,46,0.0,8.0,92,0.00,,,0.00,Wunderground v.1.15,2013-08-23 09:25:00,
2013-08-23 04:30:00,54.6,52.3,30.15,NE,46,1.0,1.0,92,0.00,,,0.00,Wunderground v.1.15,2013-08-23 09:30:00,
2013-08-23 04:40:00,54.5,52.2,30.15,NE,46,1.0,8.0,92,0.00,,,0.00,Wunderground v.1.15,2013-08-23 09:40:00,
2013-08-23 04:45:00,54.5,52.2,30.15,NE,46,1.0,8.0,92,0.00,,,0.00,Wunderground v.1.15,2013-08-23 09:45:00,
2013-08-23 04:50:00,54.4,52.1,30.15,NE,46,1.0,8.0,92,0.00,,,0.00,Wunderground v.1.15,2013-08-23 09:50:00,
2013-08-23 04:55:00,54.4,52.1,30.15,NE,46,1.0,8.0,92,0.00,,,0.00,Wunderground v.1.15,2013-08-23 09:55:00,
2013-08-23 05:00:00,54.3,52.0,30.15,NE,46,1.0,1.0,92,0.00,,,0.00,Wunderground v.1.15,2013-08-23 10:00:00,
2013-08-23 05:05:00,54.3,52.0,30.15,NE,46,0.0,8.0,92,0.00,,,0.00,Wunderground v.1.15,2013-08-23 10:05:00,
2013-08-23 05:10:00,54.2,51.9,30.15,NE,46,0.0,8.0,92,0.00,,,0.00,Wunderground v.1.15,2013-08-23 10:10:00,
2013-08-23 05:15:00,54.2,51.9,30.16,NE,46,0.0,8.0,92,0.00,,,0.00,Wunderground v.1.15,2013-08-23 10:15:00,
2013-08-23 05:20:00,54.2,51.9,30.15,NNE,28,0.0,8.0,92,0.00,,,0.00,Wunderground v.1.15,2013-08-23 10:20:00,
2013-08-23 05:25:00,54.2,51.9,30.15,NNE,30,1.0,8.0,92,0.00,,,0.00,Wunderground v.1.15,2013-08-23 10:25:00,
2013-08-23 05:30:00,54.4,52.1,30.16,NNE,30,2.0,2.0,92,0.00,,,0.00,Wunderground v.1.15,2013-08-23 10:30:00,
2013-08-23 05:40:00,54.5,52.2,30.16,NNE,30,1.0,8.0,92,0.00,,,0.00,Wunderground v.1.15,2013-08-23 10:40:00,
2013-08-23 05:45:00,54.4,52.1,30.16,NNE,30,1.0,8.0,92,0.00,,,0.00,Wunderground v.1.15,2013-08-23 10:45:00,
2013-08-23 05:50:00,54.6,52.3,30.16,NNE,30,1.0,8.0,92,0.00,,,0.00,Wunderground v.1.15,2013-08-23 10:50:00,
2013-08-23 05:55:00,54.4,51.8,30.16,NNE,30,1.0,8.0,91,0.00,,,0.00,Wunderground v.1.15,2013-08-23 10:55:00,
2013-08-23 06:00:00,54.2,51.9,30.17,NNE,30,1.0,8.0,92,0.00,,,0.00,Wunderground v.1.15,2013-08-23 11:00:00,
2013-08-23 06:05:00,54.1,51.8,30.17,NNE,30,1.0,8.0,92,0.00,,,0.00,Wunderground v.1.15,2013-08-23 11:05:00,
2013-08-23 06:10:00,54.0,51.7,30.17,NNE,30,1.0,1.0,92,0.00,,,0.00,Wunderground v.1.15,2013-08-23 11:10:00,
2013-08-23 06:15:00,54.1,51.8,30.17,NNE,30,0.0,8.0,92,0.00,,,0.00,Wunderground v.1.15,2013-08-23 11:15:00,
2013-08-23 06:20:00,54.1,51.8,30.18,NNE,31,0.0,8.0,92,0.00,,,0.00,Wunderground v.1.15,2013-08-23 11:20:00,
2013-08-23 06:25:00,54.1,51.8,30.18,NNE,31,0.0,8.0,92,0.00,,,0.00,Wunderground v.1.15,2013-08-23 11:25:00,
2013-08-23 06:35:00,55.0,52.7,30.18,NNE,18,0.0,8.0,92,0.00,,,0.00,Wunderground v.1.15,2013-08-23 11:35:00,
2013-08-23 06:45:00,55.4,53.1,30.18,NNE,18,0.0,8.0,92,0.00,,,0.00,Wunderground v.1.15,2013-08-23 11:45:00,
2013-08-23 06:50:00,55.7,53.4,30.18,NNE,18,0.0,8.0,92,0.00,,,0.00,Wunderground v.1.15,2013-08-23 11:50:00,
2013-08-23 06:55:00,56.1,53.8,30.18,NNE,18,0.0,8.0,92,0.00,,,0.00,Wunderground v.1.15,2013-08-23 11:55:00,
2013-08-23 07:00:00,56.6,54.0,30.18,NNE,18,0.0,8.0,91,0.00,,,0.00,Wunderground v.1.15,2013-08-23 12:00:00,
2013-08-23 07:05:00,57.1,54.5,30.19,NNE,18,0.0,8.0,91,0.00,,,0.00,Wunderground v.1.15,2013-08-23 12:05:00,
2013-08-23 07:10:00,57.5,54.9,30.19,NNE,18,0.0,8.0,91,0.00,,,0.00,Wunderground v.1.15,2013-08-23 12:10:00,
2013-08-23 07:15:00,58.1,55.2,30.19,NNE,18,0.0,8.0,90,0.00,,,0.00,Wunderground v.1.15,2013-08-23 12:15:00,
2013-08-23 07:20:00,58.8,55.6,30.19,NNE,18,0.0,8.0,89,0.00,,,0.00,Wunderground v.1.15,2013-08-23 12:20:00,
2013-08-23 07:25:00,59.4,55.8,30.19,NNE,18,0.0,8.0,88,0.00,,,0.00,Wunderground v.1.15,2013-08-23 12:25:00,
2013-08-23 07:30:00,59.9,56.0,30.19,NNE,18,0.0,8.0,87,0.00,,,0.00,Wunderground v.1.15,2013-08-23 12:30:00,
2013-08-23 07:35:00,60.5,56.3,30.19,NNE,18,0.0,8.0,86,0.00,,,0.00,Wunderground v.1.15,2013-08-23 12:35:00,
2013-08-23 07:40:00,61.1,55.9,30.19,NE,35,1.0,8.0,83,0.00,,,0.00,Wunderground v.1.15,2013-08-23 12:40:00,
2013-08-23 07:45:00,61.8,56.2,30.19,NE,34,1.0,8.0,82,0.00,,,0.00,Wunderground v.1.15,2013-08-23 12:45:00,
2013-08-23 07:50:00,62.3,56.0,30.19,NNE,16,2.0,2.0,80,0.00,,,0.00,Wunderground v.1.15,2013-08-23 12:50:00,
2013-08-23 07:55:00,62.8,55.8,30.19,North,360,2.0,8.0,78,0.00,,,0.00,Wunderground v.1.15,2013-08-23 12:55:00,
2013-08-23 08:00:00,63.1,55.8,30.19,NNW,344,2.0,8.0,77,0.00,,,0.00,Wunderground v.1.15,2013-08-23 13:00:00,
2013-08-23 08:05:00,63.6,55.9,30.20,NNE,19,3.0,8.0,76,0.00,,,0.00,Wunderground v.1.15,2013-08-23 13:05:00,
2013-08-23 08:10:00,63.9,55.8,30.19,NNE,25,3.0,8.0,75,0.00,,,0.00,Wunderground v.1.15,2013-08-23 13:10:00,
2013-08-23 08:15:00,64.3,56.2,30.19,NNE,22,3.0,8.0,75,0.00,,,0.00,Wunderground v.1.15,2013-08-23 13:15:00,
2013-08-23 08:25:00,65.0,56.1,30.20,ENE,67,3.0,8.0,73,0.00,,,0.00,Wunderground v.1.15,2013-08-23 13:25:00,
2013-08-23 08:30:00,65.5,56.2,30.19,North,360,3.0,8.0,72,0.00,,,0.00,Wunderground v.1.15,2013-08-23 13:30:00,
2013-08-23 08:40:00,66.2,56.1,30.19,NNE,25,3.0,8.0,70,0.00,,,0.00,Wunderground v.1.15,2013-08-23 13:40:00,
2013-08-23 08:50:00,67.0,56.1,30.19,ENE,67,4.0,8.0,68,0.00,,,0.00,Wunderground v.1.15,2013-08-23 13:50:00,
2013-08-23 08:55:00,67.2,55.9,30.19,NE,54,4.0,8.0,67,0.00,,,0.00,Wunderground v.1.15,2013-08-23 13:55:00,
2013-08-23 09:00:00,67.4,55.6,30.19,North,5,4.0,4.0,66,0.00,,,0.00,Wunderground v.1.15,2013-08-23 14:00:00,
2013-08-23 09:05:00,67.7,56.3,30.19,NE,49,3.0,8.0,67,0.00,,,0.00,Wunderground v.1.15,2013-08-23 14:05:00,
2013-08-23 09:10:00,68.0,55.8,30.20,NE,50,3.0,3.0,65,0.00,,,0.00,Wunderground v.1.15,2013-08-23 14:10:00,
2013-08-23 09:15:00,68.5,56.3,30.20,NE,44,3.0,4.0,65,0.00,,,0.00,Wunderground v.1.15,2013-08-23 14:15:00,
2013-08-23 09:20:00,68.3,55.6,30.19,NNE,14,3.0,8.0,64,0.00,,,0.00,Wunderground v.1.15,2013-08-23 14:20:00,
2013-08-23 09:25:00,68.3,55.2,30.19,NNE,33,4.0,8.0,63,0.00,,,0.00,Wunderground v.1.15,2013-08-23 14:25:00,
2013-08-23 09:35:00,68.5,56.3,30.19,East,99,4.0,8.0,65,0.00,,,0.00,Wunderground v.1.15,2013-08-23 14:35:00,
2013-08-23 09:40:00,68.8,55.2,30.19,NNE,32,3.0,8.0,62,0.00,,,0.00,Wunderground v.1.15,2013-08-23 14:40:00,
2013-08-23 09:45:00,68.8,55.7,30.19,ENE,63,3.0,8.0,63,0.00,,,0.00,Wunderground v.1.15,2013-08-23 14:45:00,
2013-08-23 09:50:00,69.2,56.1,30.19,East,96,4.0,4.0,63,0.00,,,0.00,Wunderground v.1.15,2013-08-23 14:50:00,
2013-08-23 09:55:00,69.5,55.9,30.19,East,91,3.0,8.0,62,0.00,,,0.00,Wunderground v.1.15,2013-08-23 14:55:00,
2013-08-23 10:00:00,69.6,56.0,30.19,ESE,106,3.0,3.0,62,0.00,,,0.00,Wunderground v.1.15,2013-08-23 15:00:00,
2013-08-23 10:05:00,70.0,56.4,30.19,East,88,3.0,8.0,62,0.00,,,0.00,Wunderground v.1.15,2013-08-23 15:05:00,
2013-08-23 10:10:00,70.3,56.2,30.19,NE,44,2.0,8.0,61,0.00,,,0.00,Wunderground v.1.15,2013-08-23 15:10:00,
2013-08-23 10:15:00,70.5,56.4,30.19,ENE,74,2.0,8.0,61,0.00,,,0.00,Wunderground v.1.15,2013-08-23 15:15:00,
2013-08-23 10:20:00,70.6,56.5,30.19,East,100,3.0,3.0,61,0.00,,,0.00,Wunderground v.1.15,2013-08-23 15:20:00,
2013-08-23 10:25:00,70.8,56.2,30.19,SE,129,3.0,4.0,60,0.00,,,0.00,Wunderground v.1.15,2013-08-23 15:25:00,
2013-08-23 10:30:00,70.9,56.3,30.19,SSE,150,4.0,8.0,60,0.00,,,0.00,Wunderground v.1.15,2013-08-23 15:30:00,
2013-08-23 10:35:00,71.1,57.0,30.20,ESE,107,4.0,8.0,61,0.00,,,0.00,Wunderground v.1.15,2013-08-23 15:35:00,
2013-08-23 10:40:00,70.8,56.2,30.20,NE,45,4.0,8.0,60,0.00,,,0.00,Wunderground v.1.15,2013-08-23 15:40:00,
2013-08-23 10:45:00,70.5,56.4,30.20,East,93,3.0,8.0,61,0.00,,,0.00,Wunderground v.1.15,2013-08-23 15:45:00,
2013-08-23 10:55:00,71.0,56.9,30.20,NE,40,3.0,8.0,61,0.00,,,0.00,Wunderground v.1.15,2013-08-23 15:55:00,
2013-08-23 11:00:00,71.1,56.5,30.20,NE,34,4.0,8.0,60,0.00,,,0.00,Wunderground v.1.15,2013-08-23 16:00:00,
2013-08-23 11:05:00,71.1,56.5,30.20,NNE,25,4.0,8.0,60,0.00,,,0.00,Wunderground v.1.15,2013-08-23 16:05:00,
2013-08-23 11:10:00,71.1,56.5,30.20,East,94,4.0,8.0,60,0.00,,,0.00,Wunderground v.1.15,2013-08-23 16:10:00,
2013-08-23 11:15:00,71.5,57.8,30.20,ENE,71,4.0,8.0,62,0.00,,,0.00,Wunderground v.1.15,2013-08-23 16:15:00,
2013-08-23 11:20:00,71.6,56.5,30.20,East,98,4.0,8.0,59,0.00,,,0.00,Wunderground v.1.15,2013-08-23 16:20:00,
2013-08-23 11:25:00,71.6,57.0,30.19,East,91,5.0,8.0,60,0.00,,,0.00,Wunderground v.1.15,2013-08-23 16:25:00,
2013-08-23 11:30:00,72.1,57.9,30.19,ENE,72,4.0,4.0,61,0.00,,,0.00,Wunderground v.1.15,2013-08-23 16:30:00,
2013-08-23 11:40:00,72.4,57.3,30.19,North,5,3.0,3.0,59,0.00,,,0.00,Wunderground v.1.15,2013-08-23 16:40:00,
2013-08-23 11:45:00,72.3,57.2,30.19,NNE,19,3.0,8.0,59,0.00,,,0.00,Wunderground v.1.15,2013-08-23 16:45:00,
2013-08-23 11:50:00,72.6,57.9,30.19,NE,52,3.0,3.0,60,0.00,,,0.00,Wunderground v.1.15,2013-08-23 16:50:00,
2013-08-23 11:55:00,72.9,59.6,30.19,East,88,4.0,4.0,63,0.00,,,0.00,Wunderground v.1.15,2013-08-23 16:55:00,
2013-08-23 12:00:00,72.9,58.2,30.19,ENE,57,4.0,8.0,60,0.00,,,0.00,Wunderground v.1.15,2013-08-23 17:00:00,
2013-08-23 12:05:00,72.9,57.7,30.19,NNE,24,4.0,8.0,59,0.00,,,0.00,Wunderground v.1.15,2013-08-23 17:05:00,
2013-08-23 12:10:00,72.8,57.6,30.19,ENE,57,5.0,5.0,59,0.00,,,0.00,Wunderground v.1.15,2013-08-23 17:10:00,
2013-08-23 12:15:00,72.5,58.3,30.19,NNE,30,5.0,8.0,61,0.00,,,0.00,Wunderground v.1.15,2013-08-23 17:15:00,
2013-08-23 12:20:00,72.6,57.4,30.19,NE,50,5.0,8.0,59,0.00,,,0.00,Wunderground v.1.15,2013-08-23 17:20:00,
2013-08-23 12:25:00,72.5,57.4,30.19,East,84,5.0,8.0,59,0.00,,,0.00,Wunderground v.1.15,2013-08-23 17:25:00,
2013-08-23 12:30:00,72.7,57.1,30.19,East,82,5.0,5.0,58,0.00,,,0.00,Wunderground v.1.15,2013-08-23 17:30:00,
2013-08-23 12:35:00,72.5,57.8,30.18,ENE,74,5.0,6.0,60,0.00,,,0.00,Wunderground v.1.15,2013-08-23 17:35:00,
2013-08-23 12:40:00,72.7,57.5,30.18,NE,55,5.0,5.0,59,0.00,,,0.00,Wunderground v.1.15,2013-08-23 17:40:00,
2013-08-23 12:45:00,73.2,58.5,30.18,ENE,57,4.0,8.0,60,0.00,,,0.00,Wunderground v.1.15,2013-08-23 17:45:00,
2013-08-23 12:50:00,73.2,57.1,30.18,SSE,157,4.0,8.0,57,0.00,,,0.00,Wunderground v.1.15,2013-08-23 17:50:00,
2013-08-23 12:55:00,73.2,57.1,30.18,ENE,78,4.0,8.0,57,0.00,,,0.00,Wunderground v.1.15,2013-08-23 17:55:00,
2013-08-23 13:00:00,73.3,57.1,30.18,SE,132,4.0,8.0,57,0.00,,,0.00,Wunderground v.1.15,2013-08-23 18:00:00,
2013-08-23 13:05:00,73.4,57.7,30.18,ESE,119,4.0,8.0,58,0.00,,,0.00,Wunderground v.1.15,2013-08-23 18:05:00,
2013-08-23 13:10:00,73.2,57.1,30.18,East,93,5.0,5.0,57,0.00,,,0.00,Wunderground v.1.15,2013-08-23 18:10:00,
2013-08-23 13:15:00,73.4,57.7,30.18,ESE,109,4.0,8.0,58,0.00,,,0.00,Wunderground v.1.15,2013-08-23 18:15:00,
2013-08-23 13:20:00,73.8,57.6,30.18,SSW,198,2.0,2.0,57,0.00,,,0.00,Wunderground v.1.15,2013-08-23 18:20:00,
2013-08-23 13:25:00,74.2,58.5,30.18,SSE,163,3.0,5.0,58,0.00,,,0.00,Wunderground v.1.15,2013-08-23 18:25:00,
2013-08-23 13:30:00,74.4,57.7,30.18,SSE,151,3.0,8.0,56,0.00,,,0.00,Wunderground v.1.15,2013-08-23 18:30:00,
2013-08-23 13:35:00,74.4,56.2,30.18,SE,125,3.0,8.0,53,0.00,,,0.00,Wunderground v.1.15,2013-08-23 18:35:00,
2013-08-23 13:40:00,74.7,58.0,30.18,ENE,57,3.0,8.0,56,0.00,,,0.00,Wunderground v.1.15,2013-08-23 18:40:00,
2013-08-23 13:45:00,74.8,57.0,30.17,East,83,3.0,8.0,54,0.00,,,0.00,Wunderground v.1.15,2013-08-23 18:45:00,
2013-08-23 13:55:00,74.9,56.6,30.17,ESE,123,4.0,8.0,53,0.00,,,0.00,Wunderground v.1.15,2013-08-23 18:55:00,
2013-08-23 14:00:00,75.1,58.3,30.17,NE,40,4.0,8.0,56,0.00,,,0.00,Wunderground v.1.15,2013-08-23 19:00:00,
2013-08-23 14:05:00,74.6,57.9,30.17,North,5,3.0,8.0,56,0.00,,,0.00,Wunderground v.1.15,2013-08-23 19:05:00,
2013-08-23 14:10:00,74.5,58.3,30.17,East,84,4.0,4.0,57,0.00,,,0.00,Wunderground v.1.15,2013-08-23 19:10:00,
2013-08-23 14:20:00,74.7,59.9,30.16,SSE,159,4.0,8.0,60,0.00,,,0.00,Wunderground v.1.15,2013-08-23 19:20:00,
2013-08-23 14:25:00,74.9,59.1,30.16,ENE,69,3.0,8.0,58,0.00,,,0.00,Wunderground v.1.15,2013-08-23 19:25:00,
2013-08-23 14:30:00,74.9,59.1,30.17,South,175,4.0,8.0,58,0.00,,,0.00,Wunderground v.1.15,2013-08-23 19:30:00,
2013-08-23 14:35:00,74.8,58.5,30.17,SE,132,4.0,8.0,57,0.00,,,0.00,Wunderground v.1.15,2013-08-23 19:35:00,
2013-08-23 14:40:00,74.7,58.0,30.16,South,179,5.0,5.0,56,0.00,,,0.00,Wunderground v.1.15,2013-08-23 19:40:00,
2013-08-23 14:45:00,74.9,57.6,30.16,ESE,115,5.0,8.0,55,0.00,,,0.00,Wunderground v.1.15,2013-08-23 19:45:00,
2013-08-23 14:50:00,74.8,58.1,30.16,South,175,4.0,9.0,56,0.00,,,0.00,Wunderground v.1.15,2013-08-23 19:50:00,
2013-08-23 14:55:00,74.6,59.8,30.16,SSE,168,5.0,9.0,60,0.00,,,0.00,Wunderground v.1.15,2013-08-23 19:55:00,
2013-08-23 15:00:00,74.4,59.6,30.16,ESE,105,5.0,5.0,60,0.00,,,0.00,Wunderground v.1.15,2013-08-23 20:00:00,
2013-08-23 15:05:00,74.4,60.1,30.15,SE,130,4.0,8.0,61,0.00,,,0.00,Wunderground v.1.15,2013-08-23 20:05:00,
2013-08-23 15:10:00,74.4,61.4,30.15,ESE,107,5.0,8.0,64,0.00,,,0.00,Wunderground v.1.15,2013-08-23 20:10:00,
2013-08-23 15:15:00,74.2,61.2,30.15,ENE,67,5.0,8.0,64,0.00,,,0.00,Wunderground v.1.15,2013-08-23 20:15:00,
2013-08-23 15:20:00,74.4,61.4,30.15,East,80,4.0,8.0,64,0.00,,,0.00,Wunderground v.1.15,2013-08-23 20:20:00,
2013-08-23 15:25:00,74.4,61.4,30.15,SE,133,4.0,8.0,64,0.00,,,0.00,Wunderground v.1.15,2013-08-23 20:25:00,
2013-08-23 15:30:00,74.5,61.5,30.15,ESE,109,4.0,8.0,64,0.00,,,0.00,Wunderground v.1.15,2013-08-23 20:30:00,
2013-08-23 15:40:00,74.4,61.4,30.15,East,94,4.0,8.0,64,0.00,,,0.00,Wunderground v.1.15,2013-08-23 20:40:00,
2013-08-23 15:50:00,74.5,61.1,30.14,ESE,103,4.0,8.0,63,0.00,,,0.00,Wunderground v.1.15,2013-08-23 20:50:00,
2013-08-23 16:00:00,74.8,61.8,30.15,East,99,4.0,4.0,64,0.00,,,0.00,Wunderground v.1.15,2013-08-23 21:00:00,
2013-08-23 16:05:00,74.7,61.7,30.15,SE,129,4.0,8.0,64,0.00,,,0.00,Wunderground v.1.15,2013-08-23 21:05:00,
2013-08-23 16:15:00,74.4,61.4,30.15,SE,124,4.0,8.0,64,0.00,,,0.00,Wunderground v.1.15,2013-08-23 21:15:00,
2013-08-23 16:20:00,74.4,61.9,30.15,ENE,66,4.0,4.0,65,0.00,,,0.00,Wunderground v.1.15,2013-08-23 21:20:00,
2013-08-23 16:25:00,74.5,61.5,30.15,SE,144,3.0,8.0,64,0.00,,,0.00,Wunderground v.1.15,2013-08-23 21:25:00,
2013-08-23 16:30:00,74.5,62.0,30.14,ESE,113,3.0,8.0,65,0.00,,,0.00,Wunderground v.1.15,2013-08-23 21:30:00,
2013-08-23 16:35:00,74.4,61.4,30.15,South,186,4.0,8.0,64,0.00,,,0.00,Wunderground v.1.15,2013-08-23 21:35:00,
2013-08-23 16:45:00,74.5,61.5,30.14,East,81,3.0,8.0,64,0.00,,,0.00,Wunderground v.1.15,2013-08-23 21:45:00,
2013-08-23 16:50:00,74.3,60.4,30.15,SSE,149,4.0,4.0,62,0.00,,,0.00,Wunderground v.1.15,2013-08-23 21:50:00,
2013-08-23 16:55:00,74.3,61.3,30.14,South,182,4.0,8.0,64,0.00,,,0.00,Wunderground v.1.15,2013-08-23 21:55:00,
2013-08-23 17:05:00,74.3,61.3,30.14,SE,143,4.0,8.0,64,0.00,,,0.00,Wunderground v.1.15,2013-08-23 22:05:00,
2013-08-23 17:10:00,74.3,61.3,30.14,South,172,3.0,8.0,64,0.00,,,0.00,Wunderground v.1.15,2013-08-23 22:10:00,
2013-08-23 17:15:00,74.3,60.9,30.14,SE,128,3.0,8.0,63,0.00,,,0.00,Wunderground v.1.15,2013-08-23 22:15:00,
2013-08-23 17:20:00,74.2,61.7,30.14,ESE,119,4.0,8.0,65,0.00,,,0.00,Wunderground v.1.15,2013-08-23 22:20:00,
2013-08-23 17:25:00,74.2,61.2,30.14,ESE,123,4.0,8.0,64,0.00,,,0.00,Wunderground v.1.15,2013-08-23 22:25:00,
2013-08-23 17:30:00,74.1,60.7,30.14,SE,144,3.0,3.0,63,0.00,,,0.00,Wunderground v.1.15,2013-08-23 22:30:00,
2013-08-23 17:35:00,74.1,60.7,30.14,SE,139,3.0,8.0,63,0.00,,,0.00,Wunderground v.1.15,2013-08-23 22:35:00,
2013-08-23 17:40:00,74.0,60.6,30.14,East,97,3.0,8.0,63,0.00,,,0.00,Wunderground v.1.15,2013-08-23 22:40:00,
2013-08-23 17:45:00,73.9,61.0,30.14,ESE,113,3.0,8.0,64,0.00,,,0.00,Wunderground v.1.15,2013-08-23 22:45:00,
2013-08-23 17:50:00,73.8,60.4,30.14,SSE,147,3.0,8.0,63,0.00,,,0.00,Wunderground v.1.15,2013-08-23 22:50:00,
2013-08-23 17:55:00,73.7,60.8,30.14,SSE,164,3.0,8.0,64,0.00,,,0.00,Wunderground v.1.15,2013-08-23 22:55:00,
2013-08-23 18:00:00,73.5,60.1,30.14,SSE,158,3.0,8.0,63,0.00,,,0.00,Wunderground v.1.15,2013-08-23 23:00:00,
2013-08-23 18:05:00,73.4,60.5,30.14,SSE,167,3.0,8.0,64,0.00,,,0.00,Wunderground v.1.15,2013-08-23 23:05:00,
2013-08-23 18:10:00,73.4,61.3,30.14,SE,130,2.0,2.0,66,0.00,,,0.00,Wunderground v.1.15,2013-08-23 23:10:00,
2013-08-23 18:15:00,73.2,60.7,30.14,SSE,154,2.0,8.0,65,0.00,,,0.00,Wunderground v.1.15,2013-08-23 23:15:00,
2013-08-23 18:20:00,73.0,61.0,30.14,South,180,2.0,8.0,66,0.00,,,0.00,Wunderground v.1.15,2013-08-23 23:20:00,
2013-08-23 18:25:00,72.8,60.8,30.13,SSE,158,2.0,8.0,66,0.00,,,0.00,Wunderground v.1.15,2013-08-23 23:25:00,
2013-08-23 18:30:00,72.6,61.0,30.14,SE,146,2.0,8.0,67,0.00,,,0.00,Wunderground v.1.15,2013-08-23 23:30:00,
2013-08-23 18:40:00,72.9,61.3,30.14,SE,128,2.0,2.0,67,0.00,,,0.00,Wunderground v.1.15,2013-08-23 23:40:00,
2013-08-23 18:45:00,72.9,61.7,30.14,South,175,2.0,8.0,68,0.00,,,0.00,Wunderground v.1.15,2013-08-23 23:45:00,
2013-08-23 18:50:00,72.7,61.5,30.13,SE,133,2.0,2.0,68,0.00,,,0.00,Wunderground v.1.15,2013-08-23 23:50:00,
2013-08-23 18:55:00,72.5,61.7,30.13,South,178,2.0,8.0,69,0.00,,,0.00,Wunderground v.1.15,2013-08-23 23:55:00,
2013-08-23 19:00:00,72.4,61.7,30.13,SE,138,2.0,8.0,69,0.00,,,0.00,Wunderground v.1.15,2013-08-24 00:00:00,
2013-08-23 19:05:00,72.2,61.5,30.13,SE,145,2.0,8.0,69,0.00,,,0.00,Wunderground v.1.15,2013-08-24 00:05:00,
2013-08-23 19:10:00,72.0,61.7,30.13,SSE,156,1.0,8.0,70,0.00,,,0.00,Wunderground v.1.15,2013-08-24 00:10:00,
2013-08-23 19:15:00,71.8,61.5,30.13,SSE,156,1.0,8.0,70,0.00,,,0.00,Wunderground v.1.15,2013-08-24 00:15:00,
2013-08-23 19:20:00,71.5,62.0,30.13,SSE,156,1.0,1.0,72,0.00,,,0.00,Wunderground v.1.15,2013-08-24 00:20:00,
2013-08-23 19:25:00,71.0,61.5,30.13,SSE,156,0.0,8.0,72,0.00,,,0.00,Wunderground v.1.15,2013-08-24 00:25:00,
2013-08-23 19:30:00,70.5,61.4,30.13,SSE,156,0.0,8.0,73,0.00,,,0.00,Wunderground v.1.15,2013-08-24 00:30:00,
2013-08-23 19:35:00,69.8,61.1,30.13,SSE,156,0.0,8.0,74,0.00,,,0.00,Wunderground v.1.15,2013-08-24 00:35:00,
2013-08-23 19:40:00,69.0,60.0,30.13,SSE,156,0.0,8.0,73,0.00,,,0.00,Wunderground v.1.15,2013-08-24 00:40:00,
2013-08-23 19:45:00,68.2,60.0,30.13,SSE,156,0.0,8.0,75,0.00,,,0.00,Wunderground v.1.15,2013-08-24 00:45:00,
2013-08-23 19:50:00,67.6,59.8,30.13,SSE,156,0.0,8.0,76,0.00,,,0.00,Wunderground v.1.15,2013-08-24 00:50:00,
2013-08-23 20:00:00,66.4,59.7,30.13,SSE,156,0.0,8.0,79,0.00,,,0.00,Wunderground v.1.15,2013-08-24 01:00:00,
2013-08-23 20:10:00,65.5,59.5,30.13,SSE,156,0.0,8.0,81,0.00,,,0.00,Wunderground v.1.15,2013-08-24 01:10:00,
2013-08-23 20:15:00,65.1,59.5,30.13,SSE,156,0.0,8.0,82,0.00,,,0.00,Wunderground v.1.15,2013-08-24 01:15:00,
2013-08-23 20:20:00,64.7,59.1,30.13,SSE,156,0.0,8.0,82,0.00,,,0.00,Wunderground v.1.15,2013-08-24 01:20:00,
2013-08-23 20:25:00,64.2,58.9,30.13,SSE,156,0.0,8.0,83,0.00,,,0.00,Wunderground v.1.15,2013-08-24 01:25:00,
2013-08-23 20:30:00,63.9,58.6,30.13,SSE,156,0.0,8.0,83,0.00,,,0.00,Wunderground v.1.15,2013-08-24 01:30:00,
2013-08-23 20:35:00,63.6,58.7,30.14,SSE,156,0.0,8.0,84,0.00,,,0.00,Wunderground v.1.15,2013-08-24 01:35:00,
2013-08-23 20:40:00,63.4,58.8,30.14,SSE,156,0.0,8.0,85,0.00,,,0.00,Wunderground v.1.15,2013-08-24 01:40:00,
2013-08-23 20:45:00,63.2,58.9,30.14,SSE,156,0.0,8.0,86,0.00,,,0.00,Wunderground v.1.15,2013-08-24 01:45:00,
2013-08-23 20:50:00,63.1,58.8,30.13,SSE,156,0.0,8.0,86,0.00,,,0.00,Wunderground v.1.15,2013-08-24 01:50:00,
2013-08-23 20:55:00,63.1,59.2,30.13,SSE,156,0.0,8.0,87,0.00,,,0.00,Wunderground v.1.15,2013-08-24 01:55:00,
2013-08-23 21:00:00,62.9,59.0,30.14,SSE,156,0.0,8.0,87,0.00,,,0.00,Wunderground v.1.15,2013-08-24 02:00:00,
2013-08-23 21:05:00,62.7,58.8,30.14,SSE,156,0.0,8.0,87,0.00,,,0.00,Wunderground v.1.15,2013-08-24 02:05:00,
2013-08-23 21:10:00,62.6,58.7,30.14,SSE,156,0.0,8.0,87,0.00,,,0.00,Wunderground v.1.15,2013-08-24 02:10:00,
2013-08-23 21:15:00,62.7,59.1,30.14,SSE,156,0.0,8.0,88,0.00,,,0.00,Wunderground v.1.15,2013-08-24 02:15:00,
2013-08-23 21:20:00,62.6,59.0,30.14,SSE,165,0.0,8.0,88,0.00,,,0.00,Wunderground v.1.15,2013-08-24 02:20:00,
2013-08-23 21:25:00,62.5,58.9,30.14,SSE,165,0.0,8.0,88,0.00,,,0.00,Wunderground v.1.15,2013-08-24 02:25:00,
2013-08-23 21:30:00,62.4,58.8,30.14,SSE,165,1.0,8.0,88,0.00,,,0.00,Wunderground v.1.15,2013-08-24 02:30:00,
2013-08-23 21:35:00,62.4,58.8,30.14,SSE,165,0.0,8.0,88,0.00,,,0.00,Wunderground v.1.15,2013-08-24 02:35:00,
2013-08-23 21:40:00,62.3,59.0,30.14,SSE,165,0.0,8.0,89,0.00,,,0.00,Wunderground v.1.15,2013-08-24 02:40:00,
2013-08-23 21:45:00,62.3,59.0,30.14,SSE,165,0.0,8.0,89,0.00,,,0.00,Wunderground v.1.15,2013-08-24 02:45:00,
2013-08-23 21:50:00,62.1,58.8,30.14,SSE,165,0.0,8.0,89,0.00,,,0.00,Wunderground v.1.15,2013-08-24 02:50:00,
2013-08-23 21:55:00,62.0,58.7,30.14,SSE,165,0.0,8.0,89,0.00,,,0.00,Wunderground v.1.15,2013-08-24 02:55:00,
2013-08-23 22:00:00,61.9,58.6,30.14,SSE,165,0.0,8.0,89,0.00,,,0.00,Wunderground v.1.15,2013-08-24 03:00:00,
2013-08-23 22:05:00,61.6,58.3,30.14,SSE,165,0.0,8.0,89,0.00,,,0.00,Wunderground v.1.15,2013-08-24 03:05:00,
2013-08-23 22:10:00,61.6,58.6,30.14,SSE,165,0.0,8.0,90,0.00,,,0.00,Wunderground v.1.15,2013-08-24 03:10:00,
2013-08-23 22:15:00,61.5,58.5,30.14,SSE,165,0.0,8.0,90,0.00,,,0.00,Wunderground v.1.15,2013-08-24 03:15:00,
2013-08-23 22:20:00,61.4,58.4,30.14,SSW,207,0.0,8.0,90,0.00,,,0.00,Wunderground v.1.15,2013-08-24 03:20:00,
2013-08-23 22:30:00,61.6,58.9,30.14,SSW,206,1.0,1.0,91,0.00,,,0.00,Wunderground v.1.15,2013-08-24 03:30:00,
2013-08-23 22:35:00,61.5,58.5,30.14,SSW,206,0.0,8.0,90,0.00,,,0.00,Wunderground v.1.15,2013-08-24 03:35:00,
2013-08-23 22:45:00,61.2,58.6,30.14,SSW,206,0.0,8.0,91,0.00,,,0.00,Wunderground v.1.15,2013-08-24 03:45:00,
2013-08-23 22:50:00,61.1,58.5,30.14,SSW,206,0.0,8.0,91,0.00,,,0.00,Wunderground v.1.15,2013-08-24 03:50:00,
2013-08-23 22:55:00,60.9,58.3,30.15,SSW,206,0.0,8.0,91,0.00,,,0.00,Wunderground v.1.15,2013-08-24 03:55:00,
2013-08-23 23:00:00,61.0,58.4,30.14,SSW,206,0.0,8.0,91,0.00,,,0.00,Wunderground v.1.15,2013-08-24 04:00:00,
2013-08-23 23:05:00,60.9,58.3,30.14,SSW,206,0.0,8.0,91,0.00,,,0.00,Wunderground v.1.15,2013-08-24 04:05:00,
2013-08-23 23:10:00,60.7,58.1,30.14,SSW,206,0.0,8.0,91,0.00,,,0.00,Wunderground v.1.15,2013-08-24 04:10:00,
2013-08-23 23:15:00,60.6,58.0,30.15,SSW,207,0.0,8.0,91,0.00,,,0.00,Wunderground v.1.15,2013-08-24 04:15:00,
2013-08-23 23:20:00,60.5,57.9,30.15,SSW,206,0.0,8.0,91,0.00,,,0.00,Wunderground v.1.15,2013-08-24 04:20:00,
2013-08-23 23:25:00,60.5,58.2,30.15,SSW,206,0.0,8.0,92,0.00,,,0.00,Wunderground v.1.15,2013-08-24 04:25:00,
2013-08-23 23:30:00,60.4,58.1,30.15,SSW,206,0.0,8.0,92,0.00,,,0.00,Wunderground v.1.15,2013-08-24 04:30:00,
2013-08-23 23:35:00,60.4,58.1,30.15,SSW,206,0.0,8.0,92,0.00,,,0.00,Wunderground v.1.15,2013-08-24 04:35:00,
2013-08-23 23:40:00,60.3,58.0,30.16,SSW,207,0.0,8.0,92,0.00,,,0.00,Wunderground v.1.15,2013-08-24 04:40:00,
2013-08-23 23:45:00,60.2,57.9,30.15,SSW,206,0.0,8.0,92,0.00,,,0.00,Wunderground v.1.15,2013-08-24 04:45:00,
2013-08-23 23:50:00,60.4,58.1,30.16,SSW,206,0.0,8.0,92,0.00,,,0.00,Wunderground v.1.15,2013-08-24 04:50:00,
2013-08-23 23:55:00,60.7,58.7,30.16,SSW,213,1.0,8.0,93,0.00,,,0.00,Wunderground v.1.15,2013-08-24 04:55:00,